Location: Bednik
(45.3500°N, 16.3833°E)
Time: 17:26:24
(UTC+00:00)

H-2A R/B - Pass Details

Date: 08 August 2020
Orbit: 734 x 836 km, 98.2° (Epoch: 24 September)

Event Time Altitude Azimuth Distance (km) Brightness Sun altitude
Rises 18:49:30 0° 189° (S) 3,288 5.1 -6.7°
Reaches altitude 10° 18:52:02 10° 198° (SSW) 2,347 4.4 -7.1°
Maximum altitude 18:56:44 35° 263° (W) 1,245 3.7 -7.8°
Drops below altitude 10° 19:01:21 10° 329° (NNW) 2,302 5.6 -8.5°
Sets 19:03:50 0° 339° (NNW) 3,218 6.2 -8.8°
